| time (UTC) | temp F | wind direction | speed knots | gust knots | rain 1hr in | rain 24hr in | rain mn in | humidity % | barometer mb |
| 20260506200007 | 66 | 247 | 1.7 | 9.6 | 0.00 | 0.00 | 0.00 | 66 | 1067.4 |
| 20260506195507 | 66 | 333 | 0.9 | 9.6 | 0.00 | 0.00 | 0.00 | 69 | 1077.5 |
| 20260506194452 | 66 | 354 | 0.9 | 9.6 | 0.00 | 0.00 | 0.00 | 72 | 1083.1 |
| 20260506193952 | 66 | 358 | 0.9 | 9.6 | 0.00 | 0.00 | 0.00 | 70 | 1048.4 |
| 20260506193452 | 66 | 52 | 0.0 | 9.6 | 0.00 | 0.00 | 0.00 | 71 | 1037.7 |
| 20260506192952 | 65 | 307 | 0.0 | 9.6 | 0.00 | 0.00 | 0.00 | 72 | 1069.6 |
| 20260506185837 | 63 | 294 | 0.9 | 9.6 | 0.00 | 0.00 | 0.00 | 73 | 1072.1 |
| 20260506185338 | 63 | 250 | 1.7 | 9.6 | 0.00 | 0.00 | 0.00 | 72 | 1083.3 |
| 20260506184838 | 62 | 335 | 0.0 | 9.6 | 0.00 | 0.00 | 0.00 | 77 | 1091.8 |
| 20260506184338 | 62 | 264 | 0.9 | 9.6 | 0.00 | 0.00 | 0.00 | 76 | 1075.3 |
| 20260506183838 | 61 | 218 | 0.0 | 9.6 | 0.00 | 0.00 | 0.00 | 78 | 1067.5 |
| 20260506183338 | 61 | 199 | 0.9 | 9.6 | 0.00 | 0.00 | 0.00 | 75 | 1067.9 |
| 20260506182837 | 61 | 222 | 1.7 | 9.6 | 0.00 | 0.00 | 0.00 | 75 | 1069.2 |
| 20260506181822 | 61 | 222 | 0.9 | 9.6 | 0.00 | 0.00 | 0.00 | 74 | 1067.2 |
| 20260506180807 | 61 | 146 | 0.9 | 9.6 | 0.00 | 0.00 | 0.00 | 75 | 1055.9 |
| 20260506180308 | 62 | 221 | 0.9 | 9.6 | 0.00 | 0.00 | 0.00 | 74 | 1058.8 |
| 20260506175807 | 61 | 279 | 0.0 | 9.6 | 0.00 | 0.00 | 0.00 | 76 | 1077.3 |
| 20260506175307 | 61 | 278 | 0.0 | 9.6 | 0.00 | 0.00 | 0.00 | 76 | 1069.8 |
| 20260506174807 | 61 | 195 | 0.9 | 9.6 | 0.00 | 0.00 | 0.00 | 75 | 1045.9 |
| 20260506173752 | 60 | 151 | 0.9 | 9.6 | 0.00 | 0.00 | 0.00 | 76 | 1052.7 |
| 20260506172737 | 60 | 266 | 0.9 | 9.6 | 0.00 | 0.00 | 0.00 | 78 | 1071.7 |
| 20260506172237 | 59 | 201 | 0.9 | 9.6 | 0.00 | 0.00 | 0.00 | 77 | 1066.8 |
| 20260506171737 | 59 | 236 | 0.0 | 9.6 | 0.00 | 0.00 | 0.00 | 77 | 1069.2 |
| 20260506171238 | 59 | 257 | 0.0 | 9.6 | 0.00 | 0.00 | 0.00 | 77 | 1065.2 |
| 20260506170738 | 59 | 211 | 0.0 | 9.6 | 0.00 | 0.00 | 0.00 | 78 | 1062.0 |
| 20260506170238 | 59 | 205 | 0.0 | 9.6 | 0.00 | 0.00 | 0.00 | 78 | 1067.3 |
| 20260506165738 | 59 | 244 | 0.0 | 9.6 | 0.00 | 0.00 | 0.00 | 77 | 1078.1 |
| 20260506165238 | 59 | 241 | 0.9 | 9.6 | 0.00 | 0.00 | 0.00 | 76 | 1081.4 |
| 20260506164738 | 59 | 309 | 0.0 | 9.6 | 0.00 | 0.00 | 0.00 | 78 | 1084.1 |
| 20260506164238 | 59 | 287 | 0.0 | 9.6 | 0.00 | 0.00 | 0.00 | 77 | 1073.2 |
| 20260506163738 | 59 | 247 | 0.9 | 9.6 | 0.00 | 0.00 | 0.00 | 77 | 1067.7 |
| 20260506163238 | 59 | 211 | 1.7 | 9.6 | 0.00 | 0.00 | 0.00 | 76 | 1065.6 |
| 20260506162738 | 59 | 226 | 0.0 | 9.6 | 0.00 | 0.00 | 0.00 | 77 | 1068.3 |
| 20260506162238 | 58 | 255 | 0.9 | 9.6 | 0.00 | 0.00 | 0.00 | 78 | 1072.8 |
| 20260506161738 | 58 | 219 | 0.9 | 9.6 | 0.00 | 0.00 | 0.00 | 77 | 1069.0 |
| 20260506160723 | 58 | 321 | 0.0 | 9.6 | 0.00 | 0.00 | 0.00 | 78 | 1083.4 |
| 20260506155153 | 58 | 209 | 0.0 | 9.6 | 0.00 | 0.00 | 0.00 | 77 | 1065.4 |
| 20260506154653 | 58 | 250 | 0.9 | 9.6 | 0.00 | 0.00 | 0.00 | 77 | 1068.3 |
| 20260506153638 | 59 | 274 | 0.0 | 9.6 | 0.00 | 0.00 | 0.00 | 76 | 1063.2 |
| 20260506153138 | 59 | 264 | 0.9 | 9.6 | 0.00 | 0.00 | 0.00 | 75 | 1046.3 |
| 20260506152638 | 59 | 130 | 0.0 | 9.6 | 0.00 | 0.00 | 0.00 | 80 | 1029.9 |
| 20260506152138 | 59 | 130 | 0.0 | 9.6 | 0.00 | 0.00 | 0.00 | 79 | 1033.9 |
| 20260506151638 | 59 | 147 | 0.0 | 9.6 | 0.00 | 0.00 | 0.00 | 78 | 1041.6 |
| 20260506151138 | 58 | 136 | 0.0 | 9.6 | 0.00 | 0.00 | 0.00 | 78 | 1053.6 |
| 20260506150638 | 58 | 198 | 0.0 | 9.6 | 0.00 | 0.00 | 0.00 | 80 | 1072.7 |
| 20260506150138 | 57 | 251 | 0.9 | 9.6 | 0.00 | 0.00 | 0.00 | 79 | 1081.7 |
| 20260506145638 | 57 | 224 | 0.0 | 9.6 | 0.00 | 0.00 | 0.00 | 82 | 1078.9 |
| 20260506145138 | 56 | 264 | 0.9 | 9.6 | 0.00 | 0.00 | 0.00 | 81 | 1076.3 |
| 20260506144638 | 56 | 324 | 0.9 | 9.6 | 0.00 | 0.00 | 0.00 | 81 | 1072.2 |
| 20260506144138 | 56 | 225 | 0.0 | 9.6 | 0.00 | 0.00 | 0.00 | 81 | 1060.5 |
| 20260506143638 | 56 | 210 | 0.9 | 9.6 | 0.00 | 0.00 | 0.00 | 81 | 1052.7 |
| 20260506142623 | 55 | 241 | 0.9 | 9.6 | 0.00 | 0.00 | 0.00 | 82 | 1071.9 |
| 20260506142123 | 55 | 257 | 0.9 | 9.6 | 0.00 | 0.00 | 0.00 | 82 | 1069.2 |
| 20260506141108 | 55 | 268 | 0.9 | 9.6 | 0.00 | 0.00 | 0.00 | 83 | 1074.1 |
| 20260506140608 | 55 | 339 | 0.0 | 9.6 | 0.00 | 0.00 | 0.00 | 83 | 1085.9 |
| 20260506135553 | 55 | 252 | 0.9 | 9.6 | 0.00 | 0.00 | 0.00 | 83 | 1082.0 |
| 20260506135053 | 55 | 288 | 0.9 | 9.6 | 0.00 | 0.00 | 0.00 | 83 | 1082.8 |
| 20260506134553 | 55 | 314 | 0.0 | 9.6 | 0.00 | 0.00 | 0.00 | 83 | 1071.7 |
| 20260506134053 | 55 | 223 | 0.0 | 9.6 | 0.00 | 0.00 | 0.00 | 84 | 1069.2 |
| 20260506132523 | 55 | 265 | 0.0 | 9.6 | 0.00 | 0.00 | 0.00 | 83 | 1083.6 |
| 20260506132023 | 55 | 245 | 0.9 | 9.6 | 0.00 | 0.00 | 0.00 | 83 | 1078.6 |
| 20260506131523 | 55 | 262 | 0.0 | 9.6 | 0.00 | 0.00 | 0.00 | 84 | 1076.7 |
| 20260506131023 | 55 | 274 | 0.0 | 9.6 | 0.00 | 0.00 | 0.00 | 84 | 1073.8 |
| 20260506130523 | 55 | 228 | 0.0 | 9.6 | 0.00 | 0.00 | 0.00 | 84 | 1070.6 |
| 20260506130023 | 55 | 225 | 0.9 | 9.6 | 0.00 | 0.00 | 0.00 | 84 | 1074.3 |
| 20260506125523 | 55 | 252 | 0.0 | 9.6 | 0.00 | 0.00 | 0.00 | 84 | 1070.2 |
| 20260506125022 | 55 | 231 | 0.9 | 9.6 | 0.00 | 0.00 | 0.00 | 84 | 1069.9 |
| 20260506124522 | 55 | 228 | 0.0 | 9.6 | 0.00 | 0.00 | 0.00 | 84 | 1067.2 |
| 20260506124022 | 55 | 203 | 0.0 | 9.6 | 0.00 | 0.00 | 0.00 | 84 | 1075.8 |
| 20260506123522 | 55 | 290 | 1.7 | 9.6 | 0.00 | 0.00 | 0.00 | 85 | 1074.7 |
| 20260506122507 | 55 | 220 | 0.9 | 9.6 | 0.00 | 0.00 | 0.00 | 85 | 1062.3 |
| 20260506122007 | 55 | 249 | 0.9 | 9.6 | 0.00 | 0.00 | 0.00 | 85 | 1059.2 |
| 20260506121507 | 55 | 31 | 0.0 | 9.6 | 0.00 | 0.00 | 0.00 | 85 | 1043.9 |
| 20260506121007 | 55 | 282 | 0.0 | 9.6 | 0.00 | 0.00 | 0.00 | 85 | 1072.2 |
| 20260506120507 | 55 | 292 | 0.0 | 9.6 | 0.00 | 0.00 | 0.00 | 84 | 1082.6 |
| 20260506120007 | 55 | 238 | 0.9 | 9.6 | 0.00 | 0.00 | 0.00 | 84 | 1079.4 |
| 20260506115506 | 55 | 310 | 0.9 | 9.6 | 0.00 | 0.00 | 0.00 | 84 | 1078.2 |
| 20260506115005 | 56 | 305 | 1.7 | 9.6 | 0.00 | 0.00 | 0.00 | 84 | 1076.7 |
| 20260506114505 | 56 | 329 | 0.0 | 9.6 | 0.00 | 0.00 | 0.00 | 84 | 1076.2 |
| 20260506114005 | 56 | 286 | 0.0 | 9.6 | 0.00 | 0.00 | 0.00 | 83 | 1070.1 |
| 20260506113504 | 56 | 322 | 0.9 | 9.6 | 0.00 | 0.00 | 0.00 | 83 | 1058.0 |
| 20260506111934 | 56 | 290 | 0.0 | 9.6 | 0.00 | 0.00 | 0.00 | 83 | 1077.3 |
| 20260506111434 | 56 | 215 | 0.0 | 9.6 | 0.00 | 0.00 | 0.00 | 83 | 1070.3 |
| 20260506110419 | 57 | 303 | 0.0 | 9.6 | 0.00 | 0.00 | 0.00 | 83 | 1079.3 |
| 20260506105919 | 57 | 236 | 0.0 | 9.6 | 0.00 | 0.00 | 0.00 | 83 | 1071.8 |
| 20260506105419 | 57 | 192 | 0.9 | 9.6 | 0.00 | 0.00 | 0.00 | 83 | 1064.9 |
| 20260506104919 | 57 | 266 | 0.0 | 9.6 | 0.00 | 0.00 | 0.00 | 83 | 1074.8 |
| 20260506103904 | 57 | 191 | 0.0 | 9.6 | 0.00 | 0.00 | 0.00 | 83 | 1063.5 |
| 20260506103403 | 57 | 336 | 0.9 | 9.6 | 0.00 | 0.00 | 0.00 | 83 | 1057.0 |
| 20260506102903 | 57 | 161 | 0.9 | 9.6 | 0.00 | 0.00 | 0.00 | 83 | 1056.9 |
| 20260506102404 | 57 | 176 | 0.0 | 9.6 | 0.00 | 0.00 | 0.00 | 83 | 1070.6 |
| 20260506100833 | 56 | 274 | 0.0 | 9.6 | 0.00 | 0.00 | 0.00 | 84 | 1095.1 |
| 20260506100333 | 56 | 300 | 0.0 | 9.6 | 0.00 | 0.00 | 0.00 | 84 | 1092.0 |
| 20260506095833 | 56 | 283 | 0.0 | 9.6 | 0.00 | 0.00 | 0.00 | 84 | 1089.8 |
| 20260506095333 | 57 | 278 | 0.0 | 9.6 | 0.00 | 0.00 | 0.00 | 84 | 1089.4 |
| 20260506094834 | 57 | 284 | 0.0 | 9.6 | 0.00 | 0.00 | 0.00 | 84 | 1089.0 |
| 20260506094333 | 57 | 284 | 0.0 | 9.6 | 0.00 | 0.00 | 0.00 | 84 | 1086.6 |
| 20260506093834 | 56 | 270 | 0.0 | 9.6 | 0.00 | 0.00 | 0.00 | 84 | 1085.3 |
| 20260506092819 | 56 | 267 | 0.0 | 9.6 | 0.00 | 0.00 | 0.00 | 84 | 1083.6 |
| 20260506092318 | 56 | 256 | 0.0 | 9.6 | 0.00 | 0.00 | 0.00 | 84 | 1085.0 |
| 20260506091818 | 56 | 263 | 0.0 | 9.6 | 0.00 | 0.00 | 0.00 | 84 | 1091.5 |
| 20260506091317 | 56 | 301 | 0.0 | 9.6 | 0.00 | 0.00 | 0.00 | 85 | 1091.0 |
| 20260506090817 | 56 | 263 | 0.0 | 9.6 | 0.00 | 0.00 | 0.00 | 84 | 1089.3 |
| 20260506090318 | 56 | 294 | 0.0 | 9.6 | 0.00 | 0.00 | 0.00 | 85 | 1089.9 |
| 20260506085818 | 56 | 277 | 0.0 | 9.6 | 0.00 | 0.00 | 0.00 | 85 | 1082.9 |
| 20260506085318 | 57 | 263 | 0.0 | 9.6 | 0.00 | 0.00 | 0.00 | 87 | 1080.8 |
| 20260506084818 | 57 | 263 | 0.0 | 9.6 | 0.00 | 0.00 | 0.00 | 87 | 1079.6 |
| 20260506084318 | 57 | 263 | 0.0 | 9.6 | 0.00 | 0.00 | 0.00 | 86 | 1077.5 |
| 20260506083818 | 56 | 264 | 0.0 | 9.6 | 0.00 | 0.00 | 0.00 | 84 | 1073.4 |
| 20260506083318 | 56 | 221 | 0.0 | 9.6 | 0.00 | 0.00 | 0.00 | 85 | 1065.9 |
| 20260506082818 | 56 | 245 | 0.0 | 9.6 | 0.00 | 0.00 | 0.00 | 86 | 1063.7 |
| 20260506082318 | 56 | 232 | 0.0 | 9.6 | 0.00 | 0.00 | 0.00 | 86 | 1055.6 |
| 20260506081818 | 56 | 215 | 0.0 | 9.6 | 0.00 | 0.00 | 0.00 | 86 | 1043.1 |
| 20260506081318 | 56 | 162 | 0.0 | 9.6 | 0.00 | 0.00 | 0.00 | 87 | 1026.1 |
| 20260506080302 | 56 | 119 | 0.0 | 9.6 | 0.00 | 0.00 | 0.00 | 89 | 1023.3 |
| 20260506072231 | 55 | 53 | 0.0 | 9.6 | 0.00 | 0.00 | 0.00 | 90 | 993.8 |
| 20260506071731 | 55 | 35 | 0.0 | 9.6 | 0.00 | 0.00 | 0.00 | 90 | 989.1 |
| 20260506071231 | 54 | 28 | 0.0 | 9.6 | 0.00 | 0.00 | 0.00 | 90 | 993.7 |
| 20260506070731 | 54 | 22 | 0.0 | 9.6 | 0.00 | 0.00 | 0.00 | 90 | 1006.7 |
| 20260506070231 | 54 | 346 | 0.0 | 9.6 | 0.00 | 0.00 | 0.00 | 90 | 1036.2 |
| 20260506062228 | 53 | 113 | 0.0 | 9.6 | 0.00 | 0.00 | 0.00 | 89 | 1021.5 |
| 20260506061213 | 54 | 113 | 0.0 | 9.6 | 0.00 | 0.00 | 0.00 | 89 | 1031.4 |
| 20260506060713 | 54 | 113 | 0.0 | 9.6 | 0.00 | 0.00 | 0.00 | 87 | 1044.4 |
| 20260506060213 | 54 | 212 | 0.0 | 9.6 | 0.00 | 0.00 | 0.00 | 88 | 1071.4 |
| 20260506050112 | 55 | 228 | 0.0 | 9.6 | 0.00 | 0.00 | 0.00 | 88 | 1067.1 |
| 20260506045112 | 55 | 228 | 0.0 | 9.6 | 0.00 | 0.00 | 0.00 | 87 | 1067.2 |
| 20260506044612 | 55 | 228 | 0.0 | 9.6 | 0.00 | 0.00 | 0.00 | 86 | 1067.2 |
| 20260506044112 | 56 | 228 | 0.0 | 9.6 | 0.00 | 0.00 | 0.00 | 86 | 1067.2 |
| 20260506043057 | 56 | 228 | 0.0 | 9.6 | 0.00 | 0.00 | 0.00 | 86 | 1067.4 |
| 20260506042557 | 56 | 228 | 0.0 | 9.6 | 0.00 | 0.00 | 0.00 | 85 | 1067.7 |
| 20260506042057 | 57 | 228 | 0.0 | 9.6 | 0.00 | 0.00 | 0.00 | 85 | 1068.2 |
| 20260506041557 | 57 | 228 | 0.0 | 9.6 | 0.00 | 0.00 | 0.00 | 85 | 1069.3 |
| 20260506041057 | 57 | 228 | 0.0 | 9.6 | 0.00 | 0.00 | 0.00 | 84 | 1071.7 |
| 20260506040557 | 58 | 228 | 0.0 | 9.6 | 0.00 | 0.00 | 0.00 | 84 | 1076.6 |
| 20260506035542 | 58 | 334 | 0.0 | 9.6 | 0.00 | 0.00 | 0.00 | 83 | 1090.9 |
| 20260506035042 | 59 | 334 | 0.0 | 9.6 | 0.00 | 0.00 | 0.00 | 82 | 1070.6 |
| 20260506033512 | 59 | 15 | 0.0 | 9.6 | 0.00 | 0.00 | 0.00 | 82 | 988.1 |
| 20260506033012 | 60 | 15 | 0.0 | 9.6 | 0.00 | 0.00 | 0.00 | 81 | 999.2 |
| 20260506032512 | 60 | 15 | 0.0 | 9.6 | 0.00 | 0.00 | 0.00 | 80 | 1021.1 |
| 20260506032012 | 60 | 19 | 0.0 | 9.6 | 0.00 | 0.00 | 0.00 | 80 | 1063.7 |
| 20260506031512 | 61 | 279 | 0.0 | 9.6 | 0.00 | 0.00 | 0.00 | 79 | 1087.0 |
| 20260506030457 | 61 | 247 | 0.0 | 9.6 | 0.00 | 0.00 | 0.00 | 78 | 1083.4 |
| 20260506025958 | 62 | 247 | 0.0 | 9.6 | 0.00 | 0.00 | 0.00 | 77 | 1091.7 |
| 20260506025457 | 62 | 315 | 0.0 | 9.6 | 0.00 | 0.00 | 0.00 | 75 | 1109.4 |
| 20260506024957 | 62 | 336 | 0.0 | 9.6 | 0.00 | 0.00 | 0.00 | 76 | 1112.2 |
| 20260506024458 | 63 | 339 | 0.0 | 9.6 | 0.00 | 0.00 | 0.00 | 74 | 1111.7 |
| 20260506023958 | 64 | 339 | 0.0 | 9.6 | 0.00 | 0.00 | 0.00 | 73 | 1109.6 |
| 20260506023457 | 64 | 339 | 0.0 | 9.6 | 0.00 | 0.00 | 0.00 | 72 | 1105.5 |
| 20260506022957 | 65 | 339 | 0.0 | 9.6 | 0.00 | 0.00 | 0.00 | 71 | 1097.4 |
| 20260506021943 | 67 | 267 | 0.0 | 9.6 | 0.00 | 0.00 | 0.00 | 67 | 1076.6 |
| 20260506021442 | 67 | 251 | 0.0 | 9.6 | 0.00 | 0.00 | 0.00 | 65 | 1074.2 |
| 20260506020943 | 68 | 283 | 0.9 | 9.6 | 0.00 | 0.00 | 0.00 | 62 | 1077.3 |
| 20260506020443 | 69 | 285 | 0.0 | 9.6 | 0.00 | 0.00 | 0.00 | 61 | 1085.9 |
| 20260506015427 | 69 | 320 | 0.9 | 9.6 | 0.00 | 0.00 | 0.00 | 60 | 1076.7 |
| 20260506014928 | 69 | 100 | 0.0 | 9.6 | 0.00 | 0.00 | 0.00 | 61 | 1054.1 |
| 20260506014428 | 69 | 278 | 0.9 | 9.6 | 0.00 | 0.00 | 0.00 | 59 | 1078.7 |
| 20260506013928 | 69 | 188 | 0.9 | 9.6 | 0.00 | 0.00 | 0.00 | 59 | 1063.6 |
| 20260506013428 | 69 | 244 | 0.9 | 9.6 | 0.00 | 0.00 | 0.00 | 61 | 1075.6 |
| 20260506012928 | 69 | 260 | 0.0 | 9.6 | 0.00 | 0.00 | 0.00 | 61 | 1080.1 |
| 20260506012427 | 69 | 323 | 0.0 | 9.6 | 0.00 | 0.00 | 0.00 | 62 | 1085.5 |
| 20260506011928 | 69 | 54 | 0.9 | 9.6 | 0.00 | 0.00 | 0.00 | 63 | 1066.6 |
| 20260506011428 | 69 | 210 | 0.9 | 9.6 | 0.00 | 0.00 | 0.00 | 60 | 1053.7 |
| 20260506010928 | 69 | 199 | 0.9 | 9.6 | 0.00 | 0.00 | 0.00 | 60 | 1059.8 |
| 20260506010428 | 69 | 288 | 1.7 | 9.6 | 0.00 | 0.00 | 0.00 | 60 | 1066.8 |
| 20260506005928 | 69 | 271 | 0.9 | 9.6 | 0.00 | 0.00 | 0.00 | 60 | 1068.5 |
| 20260506004358 | 68 | 202 | 0.9 | 9.6 | 0.00 | 0.00 | 0.00 | 62 | 1065.0 |
| 20260506003343 | 67 | 141 | 0.0 | 9.6 | 0.00 | 0.00 | 0.00 | 66 | 1055.2 |
| 20260506002328 | 66 | 160 | 0.0 | 9.6 | 0.00 | 0.00 | 0.00 | 68 | 1073.6 |
| 20260506001828 | 66 | 316 | 0.9 | 9.6 | 0.00 | 0.00 | 0.00 | 67 | 1075.2 |
| 20260506000813 | 65 | 47 | 0.9 | 9.6 | 0.00 | 0.00 | 0.00 | 67 | 1061.1 |
| 20260505235758 | 65 | 6 | 0.0 | 9.6 | 0.00 | 0.00 | 0.00 | 67 | 1048.9 |
| 20260505235258 | 65 | 15 | 0.9 | 9.6 | 0.00 | 0.00 | 0.00 | 66 | 1070.0 |
| 20260505233728 | 65 | 214 | 0.9 | 9.6 | 0.00 | 0.00 | 0.00 | 65 | 1068.6 |
| 20260505233228 | 65 | 199 | 0.0 | 9.6 | 0.00 | 0.00 | 0.00 | 67 | 1066.2 |
| 20260505232728 | 65 | 259 | 0.9 | 9.6 | 0.00 | 0.00 | 0.00 | 66 | 1065.9 |
| 20260505232228 | 65 | 181 | 0.0 | 9.6 | 0.00 | 0.00 | 0.00 | 65 | 1058.8 |
| 20260505231728 | 65 | 243 | 0.9 | 9.6 | 0.00 | 0.00 | 0.00 | 64 | 1072.0 |
| 20260505231228 | 65 | 223 | 0.9 | 9.6 | 0.00 | 0.00 | 0.00 | 66 | 1066.3 |
| 20260505230728 | 65 | 276 | 0.0 | 9.6 | 0.00 | 0.00 | 0.00 | 67 | 1070.3 |
| 20260505225158 | 65 | 254 | 0.9 | 9.6 | 0.00 | 0.00 | 0.00 | 66 | 1092.5 |
| 20260505224658 | 65 | 301 | 0.0 | 9.6 | 0.00 | 0.00 | 0.00 | 67 | 1091.8 |
| 20260505224158 | 65 | 277 | 0.9 | 9.6 | 0.00 | 0.00 | 0.00 | 66 | 1089.8 |
| 20260505223658 | 65 | 317 | 0.0 | 9.6 | 0.00 | 0.00 | 0.00 | 67 | 1100.9 |
| 20260505223158 | 65 | 330 | 0.9 | 9.6 | 0.00 | 0.00 | 0.00 | 66 | 1092.7 |
| 20260505222658 | 65 | 269 | 0.0 | 9.6 | 0.00 | 0.00 | 0.00 | 66 | 1096.2 |
| 20260505221643 | 65 | 309 | 0.0 | 9.6 | 0.00 | 0.00 | 0.00 | 67 | 1087.1 |
| 20260505221143 | 65 | 243 | 1.7 | 9.6 | 0.00 | 0.00 | 0.00 | 64 | 1085.2 |
| 20260505220128 | 66 | 295 | 0.0 | 9.6 | 0.00 | 0.00 | 0.00 | 66 | 1097.1 |
| 20260505215628 | 65 | 312 | 0.0 | 9.6 | 0.00 | 0.00 | 0.00 | 69 | 1095.1 |
| 20260505215128 | 65 | 294 | 0.0 | 9.6 | 0.00 | 0.00 | 0.00 | 71 | 1088.6 |
| 20260505213558 | 65 | 254 | 0.0 | 9.6 | 0.00 | 0.00 | 0.00 | 68 | 1072.2 |
| 20260505213058 | 65 | 258 | 0.0 | 9.6 | 0.00 | 0.00 | 0.00 | 71 | 1065.7 |
| 20260505212043 | 64 | 138 | 0.0 | 9.6 | 0.00 | 0.00 | 0.00 | 70 | 1045.4 |
| 20260505211543 | 64 | 177 | 0.0 | 9.6 | 0.00 | 0.00 | 0.00 | 67 | 1062.6 |
| 20260505211043 | 65 | 262 | 0.0 | 9.6 | 0.00 | 0.00 | 0.00 | 68 | 1068.7 |
| 20260505210543 | 64 | 77 | 0.0 | 9.6 | 0.00 | 0.00 | 0.00 | 71 | 1067.1 |
| 20260505210043 | 64 | 310 | 0.0 | 9.6 | 0.00 | 0.00 | 0.00 | 72 | 1097.2 |
| 20260505204514 | 63 | 270 | 0.0 | 9.6 | 0.00 | 0.00 | 0.00 | 70 | 1085.6 |
| 20260505204013 | 63 | 322 | 0.9 | 9.6 | 0.00 | 0.00 | 0.00 | 71 | 1081.7 |
| 20260505203513 | 63 | 171 | 0.9 | 9.6 | 0.00 | 0.00 | 0.00 | 70 | 1073.7 |
| 20260505203013 | 63 | 340 | 0.0 | 9.6 | 0.00 | 0.00 | 0.00 | 71 | 1096.3 |
| 20260505201958 | 63 | 262 | 0.0 | 9.6 | 0.00 | 0.00 | 0.00 | 73 | 1081.5 |
| 20260505200943 | 63 | 270 | 0.0 | 9.6 | 0.00 | 0.00 | 0.00 | 70 | 1070.5 |
| 20260505200443 | 63 | 183 | 0.0 | 9.6 | 0.00 | 0.00 | 0.00 | 71 | 1061.5 |